Time,TemperatureF,DewpointF,PressureIn,WindDirection,WindDirectionDegrees,WindSpeedMPH,WindSpeedGustMPH,Humidity,HourlyPrecipIn,Conditions,Clouds,dailyrainin,SolarRadiationWatts/m^2,SoftwareType,DateUTC
2013-02-08 00:21:00,24.0,22.0,-100.00,North,8,1.0,2.0,93,0.00,,,0.00,0.000000,,2013-02-08 09:21:00,
2013-02-08 00:31:00,24.0,22.0,-100.00,North,8,1.0,2.0,93,0.00,,,0.00,0.000000,,2013-02-08 09:31:00,
2013-02-08 00:42:00,24.0,22.0,-100.00,North,8,1.0,2.0,93,0.00,,,0.00,0.000000,,2013-02-08 09:42:00,
2013-02-08 00:51:00,24.0,22.0,-100.00,North,8,1.0,2.0,93,0.00,,,0.00,0.000000,,2013-02-08 09:51:00,
2013-02-08 01:22:00,24.0,22.0,-100.00,ESE,113,1.0,2.0,93,0.00,,,0.00,0.000000,,2013-02-08 10:22:00,
2013-02-08 01:31:00,24.0,22.0,-100.00,ESE,113,1.0,2.0,93,0.00,,,0.00,0.000000,,2013-02-08 10:31:00,
2013-02-08 01:41:00,24.0,22.0,-100.00,ESE,113,1.0,2.0,93,0.00,,,0.00,0.000000,,2013-02-08 10:41:00,
2013-02-08 01:51:00,24.0,22.0,-100.00,ESE,113,1.0,2.0,93,0.00,,,0.00,0.000000,,2013-02-08 10:51:00,
2013-02-08 02:21:00,25.0,24.0,-100.00,WNW,300,1.0,4.0,94,0.00,,,0.00,0.000000,,2013-02-08 11:21:00,
2013-02-08 02:32:00,25.0,24.0,-100.00,WNW,300,1.0,4.0,94,0.00,,,0.00,0.000000,,2013-02-08 11:32:00,
2013-02-08 02:41:00,25.0,24.0,-100.00,WNW,300,1.0,4.0,94,0.00,,,0.00,0.000000,,2013-02-08 11:41:00,
2013-02-08 02:52:00,25.0,24.0,-100.00,WNW,300,1.0,4.0,94,0.00,,,0.00,0.000000,,2013-02-08 11:52:00,
2013-02-08 03:22:00,25.0,23.0,-100.00,ENE,71,0.0,5.0,93,0.00,,,0.00,0.000000,,2013-02-08 12:22:00,
2013-02-08 03:32:00,25.0,23.0,-100.00,ENE,71,0.0,5.0,93,0.00,,,0.00,0.000000,,2013-02-08 12:32:00,
2013-02-08 03:42:00,25.0,23.0,-100.00,ENE,71,0.0,5.0,93,0.00,,,0.00,0.000000,,2013-02-08 12:42:00,
2013-02-08 03:52:00,25.0,23.0,-100.00,ENE,71,0.0,5.0,93,0.00,,,0.00,0.000000,,2013-02-08 12:52:00,
2013-02-08 04:21:00,24.0,22.0,-100.00,South,172,0.0,1.0,93,0.00,,,0.00,0.000000,,2013-02-08 13:21:00,
2013-02-08 04:32:00,24.0,22.0,-100.00,South,172,0.0,1.0,93,0.00,,,0.00,0.000000,,2013-02-08 13:32:00,
2013-02-08 04:42:00,24.0,22.0,-100.00,South,172,0.0,1.0,93,0.00,,,0.00,0.000000,,2013-02-08 13:42:00,
2013-02-08 04:51:00,24.0,22.0,-100.00,South,172,0.0,1.0,93,0.00,,,0.00,0.000000,,2013-02-08 13:51:00,
2013-02-08 05:21:00,25.0,24.0,-100.00,East,81,0.0,0.0,94,0.00,,,0.00,0.000000,,2013-02-08 14:21:00,
2013-02-08 05:32:00,25.0,24.0,-100.00,East,81,0.0,0.0,94,0.00,,,0.00,0.000000,,2013-02-08 14:32:00,
2013-02-08 05:41:00,25.0,24.0,-100.00,East,81,0.0,0.0,94,0.00,,,0.00,0.000000,,2013-02-08 14:41:00,
2013-02-08 05:52:00,25.0,24.0,-100.00,East,81,0.0,0.0,94,0.00,,,0.00,0.000000,,2013-02-08 14:52:00,
2013-02-08 06:21:00,26.0,25.0,-100.00,ESE,122,0.0,0.0,95,0.00,,,0.00,0.000000,,2013-02-08 15:21:00,
2013-02-08 06:32:00,26.0,25.0,-100.00,ESE,122,0.0,0.0,95,0.00,,,0.00,0.000000,,2013-02-08 15:32:00,
2013-02-08 06:41:00,26.0,25.0,-100.00,ESE,122,0.0,0.0,95,0.00,,,0.00,0.000000,,2013-02-08 15:41:00,
2013-02-08 06:51:00,26.0,25.0,-100.00,ESE,122,0.0,0.0,95,0.00,,,0.00,0.000000,,2013-02-08 15:51:00,
2013-02-08 07:21:00,26.0,25.0,-100.00,SSE,149,0.0,0.0,95,0.00,,,0.00,0.000000,,2013-02-08 16:21:00,
2013-02-08 07:32:00,26.0,25.0,-100.00,SSE,149,0.0,0.0,95,0.00,,,0.00,0.000000,,2013-02-08 16:32:00,
2013-02-08 07:41:00,26.0,25.0,-100.00,SSE,149,0.0,0.0,95,0.00,,,0.00,0.000000,,2013-02-08 16:41:00,
2013-02-08 07:51:00,26.0,25.0,-100.00,SSE,149,0.0,0.0,95,0.00,,,0.00,0.000000,,2013-02-08 16:51:00,
2013-02-08 08:22:00,26.0,25.0,-100.00,ENE,62,0.0,0.0,95,0.00,,,-99.99,0.000000,,2013-02-08 17:22:00,
2013-02-08 08:32:00,26.0,25.0,-100.00,ENE,62,0.0,0.0,95,0.00,,,-99.99,0.000000,,2013-02-08 17:32:00,
2013-02-08 08:42:00,26.0,25.0,-100.00,ENE,62,0.0,0.0,95,0.00,,,-99.99,0.000000,,2013-02-08 17:42:00,
2013-02-08 08:52:00,26.0,25.0,-100.00,ENE,62,0.0,0.0,95,0.00,,,-99.99,0.000000,,2013-02-08 17:52:00,
2013-02-08 09:24:00,26.0,25.0,-100.00,SSW,203,0.0,0.0,95,0.00,,,0.00,0.000000,,2013-02-08 18:24:00,
2013-02-08 09:34:00,26.0,25.0,-100.00,SSW,203,0.0,0.0,95,0.00,,,0.00,0.000000,,2013-02-08 18:34:00,
2013-02-08 09:42:00,26.0,25.0,-100.00,SSW,203,0.0,0.0,95,0.00,,,0.00,0.000000,,2013-02-08 18:42:00,
2013-02-08 09:52:00,26.0,25.0,-100.00,SSW,203,0.0,0.0,95,0.00,,,0.00,0.000000,,2013-02-08 18:52:00,
2013-02-08 10:22:00,27.0,26.0,-100.00,East,98,0.0,0.0,95,0.00,,,-99.99,1.000000,,2013-02-08 19:22:00,
2013-02-08 10:32:00,27.0,26.0,-100.00,East,98,0.0,0.0,95,0.00,,,-99.99,1.000000,,2013-02-08 19:32:00,
2013-02-08 10:41:00,27.0,26.0,-100.00,East,98,0.0,0.0,95,0.00,,,-99.99,1.000000,,2013-02-08 19:41:00,
2013-02-08 10:52:00,27.0,26.0,-100.00,East,98,0.0,0.0,95,0.00,,,-99.99,1.000000,,2013-02-08 19:52:00,
2013-02-08 11:21:00,29.0,27.0,-100.00,East,89,0.0,0.0,94,0.00,,,0.00,7.000000,,2013-02-08 20:21:00,
2013-02-08 11:31:00,29.0,27.0,-100.00,East,89,0.0,0.0,94,0.00,,,0.00,7.000000,,2013-02-08 20:31:00,
2013-02-08 11:41:00,29.0,27.0,-100.00,East,89,0.0,0.0,94,0.00,,,0.00,7.000000,,2013-02-08 20:41:00,
2013-02-08 11:52:00,29.0,27.0,-100.00,East,89,0.0,0.0,94,0.00,,,0.00,7.000000,,2013-02-08 20:52:00,
2013-02-08 12:21:00,31.0,29.0,-100.00,WNW,297,1.0,3.0,93,0.00,,,0.00,8.000000,,2013-02-08 21:21:00,
2013-02-08 12:32:00,31.0,29.0,-100.00,WNW,297,1.0,3.0,93,0.00,,,0.00,8.000000,,2013-02-08 21:32:00,
2013-02-08 12:42:00,31.0,29.0,-100.00,WNW,297,1.0,3.0,93,0.00,,,0.00,8.000000,,2013-02-08 21:42:00,
2013-02-08 12:52:00,31.0,29.0,-100.00,WNW,297,1.0,3.0,93,0.00,,,0.00,8.000000,,2013-02-08 21:52:00,
2013-02-08 13:21:00,32.0,30.0,-100.00,WNW,294,2.0,4.0,92,0.00,,,0.00,11.000000,,2013-02-08 22:21:00,
2013-02-08 13:32:00,32.0,30.0,-100.00,WNW,294,2.0,4.0,92,0.00,,,0.00,11.000000,,2013-02-08 22:32:00,
2013-02-08 13:42:00,32.0,30.0,-100.00,WNW,294,2.0,4.0,92,0.00,,,0.00,11.000000,,2013-02-08 22:42:00,
2013-02-08 13:51:00,32.0,30.0,-100.00,WNW,294,2.0,4.0,92,0.00,,,0.00,11.000000,,2013-02-08 22:51:00,
2013-02-08 14:21:00,32.0,29.0,-100.00,NNE,14,2.0,5.0,89,0.01,,,0.01,11.000000,,2013-02-08 23:21:00,
2013-02-08 14:31:00,32.0,29.0,-100.00,NNE,14,2.0,5.0,89,0.01,,,0.01,11.000000,,2013-02-08 23:31:00,
2013-02-08 14:41:00,32.0,29.0,-100.00,NNE,14,2.0,5.0,89,0.01,,,0.01,11.000000,,2013-02-08 23:41:00,
2013-02-08 14:52:00,32.0,29.0,-100.00,NNE,14,2.0,5.0,89,0.01,,,0.01,11.000000,,2013-02-08 23:52:00,
2013-02-08 15:21:00,33.0,30.0,-100.00,North,356,1.0,4.0,89,0.00,,,0.01,12.000000,,2013-02-09 00:21:00,
2013-02-08 15:32:00,33.0,30.0,-100.00,North,356,1.0,4.0,89,0.00,,,0.01,12.000000,,2013-02-09 00:32:00,
2013-02-08 15:41:00,33.0,30.0,-100.00,North,356,1.0,4.0,89,0.00,,,0.01,12.000000,,2013-02-09 00:41:00,
2013-02-08 15:52:00,33.0,30.0,-100.00,North,356,1.0,4.0,89,0.00,,,0.01,12.000000,,2013-02-09 00:52:00,
2013-02-08 16:21:00,32.0,30.0,-100.00,North,0,3.0,6.0,91,0.00,,,0.01,11.000000,,2013-02-09 01:21:00,
2013-02-08 16:31:00,32.0,30.0,-100.00,North,0,3.0,6.0,91,0.00,,,0.01,11.000000,,2013-02-09 01:31:00,
2013-02-08 16:41:00,32.0,30.0,-100.00,North,0,3.0,6.0,91,0.00,,,0.01,11.000000,,2013-02-09 01:41:00,
2013-02-08 16:52:00,32.0,30.0,-100.00,North,0,3.0,6.0,91,0.00,,,0.01,11.000000,,2013-02-09 01:52:00,
2013-02-08 17:11:00,31.0,29.0,-100.00,NNW,331,1.0,4.0,93,-99.99,,,-99.99,,,2013-02-09 02:11:00,
2013-02-08 17:21:00,31.0,29.0,-100.00,NNW,331,1.0,5.0,93,0.00,,,0.01,4.000000,,2013-02-09 02:21:00,
2013-02-08 17:32:00,31.0,29.0,-100.00,NNW,331,1.0,5.0,93,0.00,,,0.01,4.000000,,2013-02-09 02:32:00,
2013-02-08 17:41:00,31.0,29.0,-100.00,NNW,331,1.0,5.0,93,0.00,,,0.01,4.000000,,2013-02-09 02:41:00,
2013-02-08 17:52:00,31.0,29.0,-100.00,NNW,331,1.0,5.0,93,0.00,,,0.01,4.000000,,2013-02-09 02:52:00,
2013-02-08 18:21:00,30.0,28.0,-100.00,ENE,70,1.0,4.0,94,0.00,,,0.01,0.000000,,2013-02-09 03:21:00,
2013-02-08 18:32:00,30.0,28.0,-100.00,ENE,70,1.0,4.0,94,0.00,,,0.01,0.000000,,2013-02-09 03:32:00,
2013-02-08 18:41:00,30.0,28.0,-100.00,ENE,70,1.0,4.0,94,0.00,,,0.01,0.000000,,2013-02-09 03:41:00,
2013-02-08 18:51:00,30.0,28.0,-100.00,ENE,70,1.0,4.0,94,0.00,,,0.01,0.000000,,2013-02-09 03:51:00,
2013-02-08 19:11:00,28.0,27.0,-100.00,NNE,33,1.0,3.0,95,-99.99,,,-99.99,,,2013-02-09 04:11:00,
2013-02-08 19:22:00,28.0,27.0,-100.00,NNE,33,1.0,3.0,95,0.00,,,0.01,0.000000,,2013-02-09 04:22:00,
2013-02-08 19:32:00,28.0,27.0,-100.00,NNE,33,1.0,3.0,95,0.00,,,0.01,0.000000,,2013-02-09 04:32:00,
2013-02-08 19:42:00,28.0,27.0,-100.00,NNE,33,1.0,3.0,95,0.00,,,0.01,0.000000,,2013-02-09 04:42:00,
2013-02-08 19:51:00,28.0,27.0,-100.00,NNE,33,1.0,3.0,95,0.00,,,0.01,0.000000,,2013-02-09 04:51:00,
2013-02-08 20:22:00,27.0,26.0,-100.00,NNW,346,2.0,4.0,95,0.00,,,0.01,0.000000,,2013-02-09 05:22:00,
2013-02-08 20:31:00,27.0,26.0,-100.00,NNW,346,2.0,4.0,95,0.00,,,0.01,0.000000,,2013-02-09 05:31:00,
2013-02-08 20:41:00,27.0,26.0,-100.00,NNW,346,2.0,4.0,95,0.00,,,0.01,0.000000,,2013-02-09 05:41:00,
2013-02-08 20:52:00,27.0,26.0,-100.00,NNW,346,2.0,4.0,95,0.00,,,0.01,0.000000,,2013-02-09 05:52:00,
2013-02-08 21:21:00,28.0,27.0,-100.00,NNW,327,3.0,6.0,97,0.00,,,0.01,0.000000,,2013-02-09 06:21:00,
2013-02-08 21:31:00,28.0,27.0,-100.00,NNW,327,3.0,6.0,97,0.00,,,0.01,0.000000,,2013-02-09 06:31:00,
2013-02-08 21:41:00,28.0,27.0,-100.00,NNW,327,3.0,6.0,97,0.00,,,0.01,0.000000,,2013-02-09 06:41:00,
2013-02-08 21:51:00,28.0,27.0,-100.00,NNW,327,3.0,6.0,97,0.00,,,0.01,0.000000,,2013-02-09 06:51:00,
2013-02-08 22:21:00,27.0,26.0,-100.00,North,5,2.0,5.0,97,0.00,,,0.01,0.000000,,2013-02-09 07:21:00,
2013-02-08 22:31:00,27.0,26.0,-100.00,North,5,2.0,5.0,97,0.00,,,0.01,0.000000,,2013-02-09 07:31:00,
2013-02-08 22:42:00,27.0,26.0,-100.00,North,5,2.0,5.0,97,0.00,,,0.01,0.000000,,2013-02-09 07:42:00,
2013-02-08 22:51:00,27.0,26.0,-100.00,North,5,2.0,5.0,97,0.00,,,0.01,0.000000,,2013-02-09 07:51:00,
2013-02-08 23:21:00,27.0,26.0,-100.00,NNW,344,3.0,7.0,96,0.00,,,0.01,0.000000,,2013-02-09 08:21:00,
2013-02-08 23:31:00,27.0,26.0,-100.00,NNW,344,3.0,7.0,96,0.00,,,0.01,0.000000,,2013-02-09 08:31:00,
2013-02-08 23:41:00,27.0,26.0,-100.00,NNW,344,3.0,7.0,96,0.00,,,0.01,0.000000,,2013-02-09 08:41:00,
2013-02-08 23:52:00,27.0,26.0,-100.00,NNW,344,3.0,7.0,96,0.00,,,0.01,0.000000,,2013-02-09 08:52:00,